Weather History for Dansville, NY

Change the Weather History Date:

Sunday, March 31, 2013

  Actual Average Record
Temperature  
Mean Temperature 44 °F -  
Max Temperature 57 °F 52 °F 85 °F (1977)
Min Temperature 32 °F 30 °F 11 °F (1969)
Degree Days  
Heating Degree Days 20    
Moisture  
Dew Point 31 °F    
Average Humidity 67    
Maximum Humidity 93    
Minimum Humidity 33    
Precipitation  
Precipitation 0.06 in - - ()
Sea Level Pressure  
Sea Level Pressure 29.86 in    
Wind  
Wind Speed 7 mph (SE)    
Max Wind Speed 20 mph    
Max Gust Speed 29 mph    
Visibility 10 miles    
Events Rain    
Averages and records for this station are not official NWS values.
T = Trace of Precipitation, MM = Missing Value Source: NWS Daily Summary

Daily Weather History Graph

Daily Weather History Graph

Search for Another Location

Airport:

Trip Planner

Search our weather history database for the weather conditions in past years. The results will help you decide how hot, cold, wet, or windy it might be!

Date:

Astronomy

Mar. 31, 2013 Rise Set
Actual Time 6:54 AM EDT 7:35 PM EDT
Civil Twilight 6:26 AM EDT 8:04 PM EDT
Nautical Twilight 5:52 AM EDT 8:38 PM EDT
Astronomical Twilight 5:17 AM EDT 9:13 PM EDT
Moon No Moon Rise 9:34 AM EDT (3/31)
Length of Visible Light 13h 38m
Length of Day
12h 41m
Waning Gibbous, 78% of the Moon is Illuminated
Mar 31
Waning Gibbous
Apr 3
Last Quarter
Apr 10
New
Apr 18
First Quarter
Apr 25
Full

Hourly Weather History & Observations

Time (EDT) Temp. Windchill Dew Point Humidity Pressure Visibility Wind Dir Wind Speed Gust Speed Precip Events Conditions
12:54 AM 33.1 °F 28.7 °F 24.1 °F 70% 30.10 in 10.0 mi SE 4.6 mph - N/A   Clear
1:54 AM 32.0 °F 26.4 °F 24.1 °F 73% 30.08 in 10.0 mi SE 5.8 mph - N/A   Clear
2:54 AM 32.0 °F 25.6 °F 24.1 °F 73% 30.05 in 10.0 mi SE 6.9 mph - N/A   Clear
3:54 AM 34.0 °F 26.6 °F 24.1 °F 67% 30.03 in 10.0 mi East 9.2 mph - N/A   Clear
4:54 AM 33.1 °F 26.1 °F 24.1 °F 70% 30.00 in 10.0 mi ESE 8.1 mph - N/A   Clear
5:54 AM 33.1 °F 26.1 °F 24.1 °F 70% 29.97 in 10.0 mi ESE 8.1 mph - N/A   Clear
6:54 AM 34.0 °F 28.0 °F 24.1 °F 67% 29.95 in 10.0 mi SE 6.9 mph - N/A   Clear
7:54 AM 37.0 °F 32.4 °F 24.1 °F 59% 29.94 in 10.0 mi SE 5.8 mph - N/A   Clear
8:54 AM 41.0 °F 38.0 °F 26.1 °F 55% 29.91 in 10.0 mi SE 4.6 mph - N/A   Clear
9:54 AM 46.9 °F - 26.1 °F 44% 29.86 in 10.0 mi SE 8.1 mph - N/A   Clear
10:54 AM 52.0 °F - 25.0 °F 35% 29.83 in 10.0 mi SSE 11.5 mph 21.9 mph N/A   Clear
11:54 AM 55.0 °F - 27.0 °F 34% 29.81 in 10.0 mi SSE 16.1 mph 25.3 mph N/A   Clear
12:54 PM 57.0 °F - 28.0 °F 33% 29.78 in 10.0 mi South 19.6 mph 28.8 mph N/A   Partly Cloudy
1:54 PM 55.9 °F - 30.9 °F 39% 29.77 in 10.0 mi South 15.0 mph 19.6 mph N/A   Overcast
2:54 PM 50.0 °F - 39.0 °F 66% 29.77 in 10.0 mi South 8.1 mph - 0.00 in Rain Light Rain
3:54 PM 46.9 °F - 41.0 °F 80% 29.77 in 5.0 mi SSE 9.2 mph - 0.03 in Rain Light Rain
4:54 PM 45.0 °F 39.7 °F 39.9 °F 82% 29.76 in 10.0 mi SSE 10.4 mph - 0.02 in Rain Light Rain
5:54 PM 45.0 °F 41.8 °F 41.0 °F 86% 29.74 in 10.0 mi SSE 5.8 mph - 0.01 in Rain Light Rain
6:54 PM 45.0 °F 41.2 °F 41.0 °F 86% 29.73 in 10.0 mi SE 6.9 mph - 0.00 in   Overcast
8:54 PM 44.1 °F 40.8 °F 39.0 °F 82% 29.72 in 10.0 mi ESE 5.8 mph - 0.00 in   Overcast
9:54 PM 42.1 °F - 37.9 °F 85% 29.72 in 10.0 mi Calm Calm - N/A   Mostly Cloudy
10:54 PM 42.1 °F 40.2 °F 39.0 °F 89% 29.71 in 10.0 mi SE 3.5 mph - 0.00 in   Mostly Cloudy
11:54 PM 39.0 °F 36.8 °F 37.0 °F 93% 29.68 in 10.0 mi SSE 3.5 mph - N/A   Clear